Palmdale, CA

4:16 AM PST on January 23, 2018 (GMT -0800)
Palmdale Af Plant 42

Weather History for KPMD - September, 2013

Change the Weather History Date:

Thursday, September 19, 2013

  Actual Average Record
Temperature  
Mean Temperature 75 °F 73 °F  
Max Temperature 94 °F 90 °F 102 °F (2000)
Min Temperature 55 °F 56 °F 38 °F (1978)
Degree Days  
Heating Degree Days 0 0  
Month to date heating degree days 0 0  
Since 1 July heating degree days 0 0  
Cooling Degree Days 10 8  
Month to date cooling degree days 313 204  
Year to date cooling degree days 2078 1686  
Growing Degree Days 24 (Base 50)    
Moisture  
Dew Point 34 °F    
Average Humidity 34    
Maximum Humidity 60    
Minimum Humidity 7    
Precipitation  
Precipitation 0.00 in 0.01 in 0.40 in (1989)
Month to date precipitation 0.00 0.17  
Year to date precipitation 0.99 5.73  
Since 1 July precipitation 0.13  
Snow  
Snow 0.00 in - 0.00 in (1973)
Month to date snowfall 0.0  
Since 1 July snowfall 0.0  
Since 1 September snowfall 0.0  
Snow Depth 0.00 in    
Sea Level Pressure  
Sea Level Pressure 29.79 in    
Wind  
Wind Speed 4 mph (South)    
Max Wind Speed 15 mph    
Max Gust Speed 20 mph    
Visibility 10 miles    
Events      
T = Trace of Precipitation, MM = Missing Value Source: NWS Daily Summary

Daily Weather History Graph

Daily Weather History Graph

Search for Another Location

Airport or City:

Trip Planner

Search our weather history database for the weather conditions in past years. The results will help you decide how hot, cold, wet, or windy it might be!

Date:

Astronomy

Sep. 19, 2013 Rise Set
Actual Time 6:38 AM PDT 6:52 PM PDT
Civil Twilight 6:13 AM PDT 7:18 PM PDT
Nautical Twilight 5:43 AM PDT 7:47 PM PDT
Astronomical Twilight 5:13 AM PDT 8:17 PM PDT
Moon 6:57 PM PDT (9/19) 6:50 AM PDT (9/19)
Length of Visible Light 13h 04m
Length of Day
12h 14m
Full, 100% of the Moon is Illuminated
Sep 19
Full
Sep 26
Last Quarter
Oct 4
New
Oct 11
First Quarter
Oct 18
Full

Hourly Weather History & Observations

Time (PDT) Temp. Dew Point Humidity Pressure Visibility Wind Dir Wind Speed Gust Speed Precip Events Conditions
12:53 AM 64.0 °F 42.1 °F 45% 29.79 in 10.0 mi South 4.6 mph - N/A   Clear
1:53 AM 62.1 °F 44.1 °F 52% 29.78 in 10.0 mi South 4.6 mph - N/A   Clear
2:53 AM 61.0 °F 46.9 °F 60% 29.78 in 10.0 mi Calm Calm - N/A   Clear
3:53 AM 57.9 °F 43.0 °F 58% 29.78 in 10.0 mi Calm Calm - N/A   Clear
4:53 AM 57.9 °F 41.0 °F 53% 29.79 in 10.0 mi SSW 3.5 mph - N/A   Clear
5:53 AM 57.0 °F 36.0 °F 45% 29.81 in 10.0 mi SW 5.8 mph - N/A   Clear
6:53 AM 55.0 °F 34.0 °F 45% 29.83 in 10.0 mi Calm Calm - N/A   Clear
7:53 AM 62.1 °F 35.1 °F 37% 29.85 in 10.0 mi Calm Calm - N/A   Clear
8:53 AM 68.0 °F 37.9 °F 33% 29.86 in 10.0 mi Calm Calm - N/A   Clear
9:53 AM 73.9 °F 37.9 °F 27% 29.86 in 10.0 mi Calm Calm - N/A   Clear
10:53 AM 79.0 °F 34.0 °F 20% 29.85 in 10.0 mi Variable 3.5 mph - N/A   Clear
11:53 AM 84.9 °F 28.9 °F 13% 29.83 in 10.0 mi NNE 6.9 mph - N/A   Clear
12:53 PM 86.0 °F 27.0 °F 12% 29.81 in 10.0 mi Variable 3.5 mph - N/A   Clear
1:53 PM 89.1 °F 25.0 °F 10% 29.78 in 10.0 mi Calm Calm - N/A   Clear
2:53 PM 93.0 °F 21.9 °F 8% 29.76 in 10.0 mi NE 6.9 mph - N/A   Clear
3:53 PM 91.9 °F 21.9 °F 8% 29.75 in 10.0 mi SE 4.6 mph - N/A   Clear
4:53 PM 91.9 °F 21.9 °F 8% 29.73 in 10.0 mi Variable 5.8 mph - N/A   Clear
5:53 PM 91.9 °F 21.9 °F 8% 29.73 in 10.0 mi NE 3.5 mph - N/A   Clear
6:53 PM 88.0 °F 23.0 °F 9% 29.74 in 10.0 mi North 5.8 mph - N/A   Clear
7:53 PM 82.0 °F 35.1 °F 18% 29.76 in 10.0 mi WSW 10.4 mph - N/A   Clear
8:53 PM 79.0 °F 30.0 °F 17% 29.77 in 10.0 mi SSW 9.2 mph - N/A   Clear
9:53 PM 73.9 °F 44.1 °F 34% 29.78 in 10.0 mi South 6.9 mph - N/A   Clear
10:53 PM 72.0 °F 39.0 °F 30% 29.78 in 10.0 mi Calm Calm - N/A   Clear
11:53 PM 68.0 °F 39.9 °F 36% 29.78 in 10.0 mi South 4.6 mph - N/A   Clear